Time,TemperatureF,DewpointF,PressureIn,WindDirection,WindDirectionDegrees,WindSpeedMPH,WindSpeedGustMPH,Humidity,HourlyPrecipIn,Conditions,Clouds,dailyrainin,SoftwareType,DateUTC
2013-01-25 00:03:00,17.0,2.0,30.37,East,81,20.0,22.0,51,0.00,,,0.00,,2013-01-25 05:03:00,
2013-01-25 00:12:00,17.0,2.0,30.37,East,85,18.0,20.0,52,0.00,,,0.00,,2013-01-25 05:12:00,
2013-01-25 00:22:00,17.0,2.0,30.37,East,85,18.0,20.0,52,0.00,,,0.00,,2013-01-25 05:22:00,
2013-01-25 00:32:00,17.0,3.0,30.38,ENE,64,15.0,15.0,53,0.00,,,0.00,,2013-01-25 05:32:00,
2013-01-25 00:43:00,17.0,3.0,30.38,ENE,64,15.0,15.0,53,0.00,,,0.00,,2013-01-25 05:43:00,
2013-01-25 00:52:00,17.0,2.0,30.38,ENE,64,14.0,15.0,50,0.00,,,0.00,,2013-01-25 05:52:00,
2013-01-25 01:02:00,17.0,2.0,30.37,ENE,61,15.0,16.0,50,0.00,,,0.00,,2013-01-25 06:02:00,
2013-01-25 01:11:00,17.0,2.0,30.37,ENE,61,15.0,16.0,50,0.00,,,0.00,,2013-01-25 06:11:00,
2013-01-25 01:22:00,16.0,1.0,30.37,ENE,60,13.0,16.0,50,0.00,,,0.00,,2013-01-25 06:22:00,
2013-01-25 01:32:00,16.0,0.0,30.37,ENE,58,14.0,16.0,49,0.00,,,0.00,,2013-01-25 06:32:00,
2013-01-25 01:42:00,16.0,0.0,30.37,ENE,58,14.0,16.0,49,0.00,,,0.00,,2013-01-25 06:42:00,
2013-01-25 01:52:00,16.0,0.0,30.38,ENE,58,13.0,13.0,49,0.00,,,0.00,,2013-01-25 06:52:00,
2013-01-25 02:02:00,16.0,0.0,30.39,ENE,64,11.0,11.0,49,0.00,,,0.00,,2013-01-25 07:02:00,
2013-01-25 02:11:00,16.0,0.0,30.39,ENE,64,11.0,11.0,49,0.00,,,0.00,,2013-01-25 07:11:00,
2013-01-25 02:22:00,16.0,1.0,30.38,ENE,77,9.0,10.0,51,0.00,,,0.00,,2013-01-25 07:22:00,
2013-01-25 02:32:00,16.0,2.0,30.38,ENE,78,11.0,11.0,52,0.00,,,0.00,,2013-01-25 07:32:00,
2013-01-25 02:42:00,16.0,2.0,30.38,ENE,78,11.0,11.0,52,0.00,,,0.00,,2013-01-25 07:42:00,
2013-01-25 02:52:00,16.0,1.0,30.37,ENE,75,11.0,11.0,51,0.00,,,0.00,,2013-01-25 07:52:00,
2013-01-25 03:02:00,16.0,2.0,30.36,ENE,70,10.0,11.0,52,0.00,,,0.00,,2013-01-25 08:02:00,
2013-01-25 03:12:00,16.0,2.0,30.36,ENE,78,7.0,10.0,53,0.00,,,0.00,,2013-01-25 08:12:00,
2013-01-25 03:21:00,16.0,2.0,30.36,ENE,78,7.0,10.0,53,0.00,,,0.00,,2013-01-25 08:21:00,
2013-01-25 03:32:00,16.0,2.0,30.35,ENE,74,10.0,10.0,53,0.00,,,0.00,,2013-01-25 08:32:00,
2013-01-25 03:42:00,16.0,2.0,30.35,ENE,74,10.0,10.0,53,0.00,,,0.00,,2013-01-25 08:42:00,
2013-01-25 03:52:00,16.0,2.0,30.35,East,98,5.0,10.0,53,0.00,,,0.00,,2013-01-25 08:52:00,
2013-01-25 04:02:00,16.0,2.0,30.36,ESE,108,7.0,8.0,53,0.00,,,0.00,,2013-01-25 09:02:00,
2013-01-25 04:11:00,16.0,2.0,30.36,ESE,108,7.0,8.0,53,0.00,,,0.00,,2013-01-25 09:11:00,
2013-01-25 04:21:00,15.0,1.0,30.35,ESE,117,9.0,10.0,53,0.00,,,0.00,,2013-01-25 09:21:00,
2013-01-25 04:32:00,15.0,1.0,30.35,ESE,115,7.0,10.0,53,0.00,,,0.00,,2013-01-25 09:32:00,
2013-01-25 04:42:00,15.0,1.0,30.35,ESE,115,7.0,10.0,53,0.00,,,0.00,,2013-01-25 09:42:00,
2013-01-25 04:52:00,14.0,0.0,30.34,ESE,107,7.0,8.0,52,0.00,,,0.00,,2013-01-25 09:52:00,
2013-01-25 16:23:00,32.0,32.0,30.01,WSW,255,34.0,36.0,98,0.00,,,0.00,,2013-01-25 21:23:00,
2013-01-25 16:33:00,34.0,34.0,30.02,WSW,256,37.0,41.0,98,0.00,,,0.00,,2013-01-25 21:33:00,
2013-01-25 16:42:00,34.0,34.0,30.02,WSW,256,37.0,41.0,98,0.00,,,0.00,,2013-01-25 21:42:00,
2013-01-25 16:52:00,37.0,36.0,30.01,West,263,58.0,66.0,98,0.02,,,0.02,,2013-01-25 21:52:00,
2013-01-25 17:03:00,38.0,36.0,30.01,WSW,248,56.0,66.0,94,0.03,,,0.03,,2013-01-25 22:03:00,
2013-01-25 17:12:00,38.0,36.0,30.01,WSW,248,56.0,66.0,94,0.03,,,0.03,,2013-01-25 22:12:00,